Weather History for KMLI - February, 2015

Change the Weather History Date:

Friday, February 20, 2015

  Actual Average Record
Temperature  
Mean Temperature 15 °F 29 °F  
Max Temperature 28 °F 37 °F 65 °F (1930)
Min Temperature 2 °F 20 °F -11 °F (1929)
Degree Days  
Heating Degree Days 50 36  
Month to date heating degree days 977 788  
Since 1 July heating degree days 4828 4522  
Cooling Degree Days 0 0  
Month to date cooling degree days 0 0  
Year to date cooling degree days 0 0  
Moisture  
Dew Point 5 °F    
Average Humidity 59    
Maximum Humidity 72    
Minimum Humidity 46    
Precipitation  
Precipitation T in 0.07 in 1.33 in (1953)
Month to date precipitation 1.09 1.03  
Year to date precipitation 2.64 2.52  
Snow  
Snow T in 0.20 in - ()
Month to date snowfall 14.6 5.2  
Since 1 July snowfall 34.3 25.1  
Snow Depth 3.00 in    
Sea Level Pressure  
Sea Level Pressure 30.09 in    
Wind  
Wind Speed 11 mph (SSE)    
Max Wind Speed 22 mph    
Max Gust Speed 27 mph    
Visibility 9 miles    
Events Snow    
T = Trace of Precipitation, MM = Missing Value Source: NWS Daily Summary

Daily Weather History Graph

Daily Weather History Graph

Search for Another Location

Airport or City:

Trip Planner

Search our weather history database for the weather conditions in past years. The results will help you decide how hot, cold, wet, or windy it might be!

Date:

Astronomy

Feb. 20, 2015 Rise Set
Actual Time 6:50 AM CST 5:41 PM CST
Civil Twilight 6:22 AM CST 6:09 PM CST
Nautical Twilight 5:50 AM CST 6:42 PM CST
Astronomical Twilight 5:18 AM CST 7:14 PM CST
Moon 7:41 AM CST (2/20) 8:08 PM CST (2/20)
Length of Visible Light 11h 47m
Length of Day
10h 51m
Waxing Crescent, 5% of the Moon is Illuminated
Feb 20
Waxing Crescent
Feb 25
First Quarter
Mar 5
Full
Mar 13
Last Quarter
Mar 20
New

Hourly Weather History & Observations

Time (CST) Temp. Windchill Dew Point Humidity Pressure Visibility Wind Dir Wind Speed Gust Speed Precip Events Conditions
12:52 AM 3.9 °F -6.9 °F -7.1 °F 60% 30.37 in 10.0 mi SE 5.8 mph - N/A   Scattered Clouds
1:52 AM 3.2 °F -6.2 °F -5.8 °F 66% 30.29 in 10.0 mi ESE 4.6 mph - N/A   Clear
2:52 AM 3.2 °F -7.8 °F -5.8 °F 66% 30.27 in 10.0 mi SE 5.8 mph - N/A   Clear
3:52 AM 3.9 °F -9.4 °F -4.0 °F 70% 30.28 in 10.0 mi SE 8.1 mph - N/A   Mostly Cloudy
4:52 AM 6.1 °F -8.7 °F -2.9 °F 67% 30.25 in 10.0 mi SSE 10.4 mph - N/A   Overcast
5:52 AM 8.1 °F -7.7 °F -2.0 °F 64% 30.24 in 10.0 mi SSE 12.7 mph - N/A   Overcast
6:52 AM 9.0 °F -5.9 °F -2.0 °F 61% 30.22 in 10.0 mi SSE 11.5 mph - N/A   Overcast
7:52 AM 10.0 °F -6.5 °F -0.9 °F 61% 30.22 in 10.0 mi SSE 15.0 mph - 0.00 in   Overcast
8:30 AM 10.9 °F -4.1 °F 1.0 °F 64% 30.16 in 1.8 mi SSE 12.7 mph - 0.00 in Snow Light Snow
8:42 AM 10.9 °F -4.7 °F 1.9 °F 67% 30.14 in 2.0 mi SSE 13.8 mph - 0.00 in Snow Light Snow
8:49 AM 10.4 °F -5.4 °F 3.2 °F 73% 30.15 in 1.5 mi SSE 13.8 mph - 0.00 in Snow Light Snow
8:52 AM 10.9 °F -5.9 °F 3.0 °F 70% 30.19 in 1.2 mi SSE 16.1 mph 20.7 mph 0.00 in Snow Light Snow
9:08 AM 10.4 °F -6.6 °F 3.2 °F 73% 30.13 in 4.0 mi SE 16.1 mph 24.2 mph N/A   Haze
9:15 AM 10.9 °F -4.1 °F 3.9 °F 73% 30.13 in 10.0 mi SSE 12.7 mph 24.2 mph 0.00 in   Overcast
9:52 AM 12.9 °F -3.4 °F 3.9 °F 67% 30.16 in 10.0 mi SSE 16.1 mph - 0.00 in   Mostly Cloudy
10:52 AM 17.1 °F 2.5 °F 5.0 °F 59% 30.11 in 10.0 mi SSE 15.0 mph - N/A   Mostly Cloudy
11:52 AM 19.9 °F 4.8 °F 6.1 °F 55% 30.07 in 10.0 mi South 18.4 mph 23.0 mph N/A   Overcast
12:52 PM 24.1 °F 12.5 °F 8.1 °F 51% 30.03 in 10.0 mi South 12.7 mph - N/A   Mostly Cloudy
1:52 PM 26.1 °F 13.6 °F 9.0 °F 49% 29.98 in 10.0 mi SSE 16.1 mph 27.6 mph N/A   Overcast
2:52 PM 27.0 °F 14.7 °F 10.9 °F 51% 29.96 in 10.0 mi South 16.1 mph 24.2 mph N/A   Scattered Clouds
3:52 PM 27.0 °F 16.1 °F 12.0 °F 53% 29.94 in 10.0 mi South 12.7 mph - N/A   Clear
4:52 PM 27.0 °F 16.1 °F 12.9 °F 56% 29.94 in 10.0 mi South 12.7 mph - N/A   Partly Cloudy
5:52 PM 25.0 °F 13.6 °F 12.9 °F 60% 29.94 in 10.0 mi South 12.7 mph - N/A   Mostly Cloudy
6:52 PM 24.1 °F 13.1 °F 12.0 °F 60% 29.95 in 10.0 mi South 11.5 mph - N/A   Partly Cloudy
7:52 PM 24.1 °F 14.4 °F 12.9 °F 62% 29.94 in 10.0 mi South 9.2 mph - N/A   Overcast
8:52 PM 23.0 °F 12.4 °F 12.9 °F 65% 29.93 in 10.0 mi South 10.4 mph - N/A   Overcast
9:52 PM 23.0 °F 13.1 °F 12.0 °F 63% 29.94 in 10.0 mi South 9.2 mph - N/A   Overcast
10:52 PM 23.0 °F 17.0 °F 12.9 °F 65% 29.95 in 10.0 mi SSW 4.6 mph - N/A   Mostly Cloudy
11:52 PM 23.0 °F 17.0 °F 14.0 °F 68% 29.91 in 10.0 mi South 4.6 mph - N/A   Mostly Cloudy